User: anonymous   Login
Location: McDonald Observatory
(30.6717°N, 104.0221°W)
Time: 20:42:44
(UTC-06:00)
Language:

Cosmos 1484 Rocket - Orbit

View from above orbital plane
View from above orbital plane
View from above satellite
View from above satellite

Ground track
Ground track

The orbit data is extracted from the following two-line orbital elements,

1 14208U 83075B   14350.87854936  .00005168  00000-0  33396-3 0  1989
2 14208 097.4058 021.1628 0042779 038.8001 321.6286 15.07885868709728
Epoch (UTC): 16 December 2014 21:05:06
Eccentricity: 0.0042779
inclination: 97.4058°
perigee height: 513 km
apogee height: 572 km
right ascension of ascending node: 21.1628°
argument of perigee: 38.8001°
revolutions per day: 15.07885868
mean anomaly at epoch: 321.6286°
orbit number at epoch: 70972

The dashed part of the orbit path shows where the satellite is in the earth's shadow,  

DLR